Flag for Germany Weather past 2 weeks in Frankfurt an der Oder, Brandenburg, Germany

Now
90 °F

Passing clouds.


Feels Like: 88 °F
Forecast: 71 / 96 °F
Wind: 5 mph from Southeast

Location: Lindenberg

Current Time: Jul 3, 2015 at 6:01:39 PM

Latest Report: Jul 3, 2015 at 4:00 PM


Visibility: 22 mi

Pressure: 30.21 "Hg

Humidity: 27%

Dew point: 52 °F

Location of Frankfurt an der OderLocation

Historic Weather in Frankfurt an der Oder — Graph

°F

Frankfurt an der Oder temperature yesterday

Maximum temperature yesterday: 84 °F (at 6:00 PM)
Minimum temperature yesterday: 59 °F (at 6:00 AM)
Average temperature yesterday: 74 °F

Past Weeks' High & Low Weather Summary

 TemperatureHumidityPressure
High90 °F (Jul 3, 4:00 PM)98% (Jun 27, 10:00 PM)30.28 "Hg (Jun 27, 10:00 PM)
Low49 °F (Jun 24, 3:00 AM)27% (Jul 3, 4:00 PM)29.62 "Hg (Jun 23, 2:00 AM)
Average62 °F70%30.04 "Hg
* Reported Jun 18 4:00 PM — Jul 3 4:00 PM, Frankfurt an der Oder, Weather by CustomWeather, © 2015

Note: Actual official high and low records may vary slightly from our data, if they occured in-between our weather recording intervals... More about our weather records

Advertising

Frankfurt an der Oder weather history for previous 24 hours

 ConditionsComfort  
Time TempWeatherWind HumidityBarometerVisibility
4:00 PM
Fri, Jul 3
90 °FPassing clouds.5 mph27%30.21 "Hg22 mi
3:00 PM89 °FPassing clouds.3 mph28%30.22 "Hg19 mi
2:00 PM89 °FPassing clouds.3 mph30%30.24 "Hg19 mi
1:00 PM87 °FPassing clouds.5 mph31%30.26 "Hg19 mi
12:00 PM85 °FPassing clouds.3 mph33%30.27 "Hg19 mi
10:00 AM80 °FSunny.5 mph39%30.27 "Hg19 mi
9:00 AM76 °FSunny.5 mph48%30.27 "Hg19 mi
8:00 AM71 °FSunny.3 mph57%30.27 "Hg19 mi
7:00 AM66 °FSunny.5 mph64%30.27 "Hg19 mi
6:00 AM65 °FSunny.5 mph64%30.27 "Hg25 mi
4:00 AM67 °FClear.5 mph57%30.26 "Hg31 mi
3:00 AM68 °FClear.3 mph54%30.27 "Hg31 mi
2:00 AM69 °FClear.5 mph52%30.26 "Hg31 mi
1:00 AM70 °FClear.5 mph49%30.26 "Hg31 mi
12:00 AM71 °FClear.5 mph47%30.26 "Hg31 mi
10:00 PM
Thu, Jul 2
75 °FClear.3 mph42%30.25 "Hg31 mi
9:00 PM77 °FSunny.3 mph37%30.23 "Hg31 mi
8:00 PM81 °FSunny.3 mph35%30.23 "Hg31 mi
7:00 PM83 °FSunny.3 mph33%30.23 "Hg31 mi
6:00 PM84 °FSunny.3 mph33%30.22 "Hg31 mi
Weather by CustomWeather, © 2015

See weather overviewHow to use our weather pages